Time,TemperatureF,DewpointF,PressureIn,WindDirection,WindDirectionDegrees,WindSpeedMPH,WindSpeedGustMPH,Humidity,HourlyPrecipIn,Conditions,Clouds,dailyrainin,SolarRadiationWatts/m^2,SoftwareType,DateUTC
2017-10-22 00:00:00,66.6,58.1,29.90,NNW,332,15.0,18.0,74,0.00,,,0.00,0,Wunderground v.1.15,2017-10-22 05:00:00,
2017-10-22 00:05:00,66.1,58.3,29.89,NNW,335,12.0,18.0,76,0.00,,,0.00,0,Wunderground v.1.15,2017-10-22 05:05:00,
2017-10-22 00:15:00,64.6,58.6,29.90,NW,307,12.0,20.0,81,0.00,,,0.01,0,Wunderground v.1.15,2017-10-22 05:15:00,
2017-10-22 00:25:00,63.7,58.8,29.91,NW,311,6.0,18.0,84,0.07,,,0.03,0,Wunderground v.1.15,2017-10-22 05:25:00,
2017-10-22 00:35:00,63.1,58.8,29.90,NNW,332,4.0,18.0,86,0.95,,,0.10,0,Wunderground v.1.15,2017-10-22 05:35:00,
2017-10-22 00:40:00,62.7,58.8,29.90,NW,309,6.0,6.0,87,0.16,,,0.12,0,Wunderground v.1.15,2017-10-22 05:40:00,
2017-10-22 00:50:00,62.4,59.1,29.89,West,271,2.0,18.0,89,0.61,,,0.20,0,Wunderground v.1.15,2017-10-22 05:50:00,
2017-10-22 01:05:00,62.0,59.0,29.89,NW,326,3.0,18.0,90,1.24,,,0.29,0,Wunderground v.1.15,2017-10-22 06:05:00,
2017-10-22 01:15:00,61.8,58.8,29.89,West,263,2.0,18.0,90,0.22,,,0.33,0,Wunderground v.1.15,2017-10-22 06:15:00,
2017-10-22 01:20:00,61.6,58.9,29.90,WSW,254,3.0,18.0,91,0.12,,,0.34,0,Wunderground v.1.15,2017-10-22 06:20:00,
2017-10-22 01:30:00,61.4,58.7,29.90,WSW,248,3.0,3.0,91,0.09,,,0.35,0,Wunderground v.1.15,2017-10-22 06:30:00,
2017-10-22 01:40:00,61.2,58.6,29.89,WSW,246,0.0,18.0,91,0.12,,,0.37,0,Wunderground v.1.15,2017-10-22 06:40:00,
2017-10-22 01:45:00,61.2,58.9,29.90,WSW,251,1.0,18.0,92,0.10,,,0.38,0,Wunderground v.1.15,2017-10-22 06:45:00,
2017-10-22 01:50:00,61.1,58.8,29.90,NW,305,2.0,2.0,92,0.07,,,0.38,0,Wunderground v.1.15,2017-10-22 06:50:00,
2017-10-22 01:55:00,61.1,58.8,29.88,WNW,303,2.0,18.0,92,0.04,,,0.38,0,Wunderground v.1.15,2017-10-22 06:55:00,
2017-10-22 02:05:00,61.1,58.8,29.88,NW,321,0.0,18.0,92,0.00,,,0.38,0,Wunderground v.1.15,2017-10-22 07:05:00,
2017-10-22 02:10:00,61.1,58.8,29.89,WNW,283,0.0,18.0,92,0.00,,,0.38,0,Wunderground v.1.15,2017-10-22 07:10:00,
2017-10-22 02:20:00,61.1,58.8,29.90,NNE,32,0.0,18.0,92,0.00,,,0.39,0,Wunderground v.1.15,2017-10-22 07:20:00,
2017-10-22 02:25:00,61.1,59.1,29.90,NNE,24,0.0,18.0,93,0.00,,,0.39,0,Wunderground v.1.15,2017-10-22 07:25:00,
2017-10-22 02:30:00,61.1,59.1,29.91,North,11,1.0,1.0,93,0.00,,,0.39,0,Wunderground v.1.15,2017-10-22 07:30:00,
2017-10-22 02:35:00,61.1,59.1,29.92,NE,41,1.0,2.0,93,0.00,,,0.39,0,Wunderground v.1.15,2017-10-22 07:35:00,
2017-10-22 02:40:00,61.1,59.1,29.91,ENE,75,1.0,1.0,93,0.00,,,0.39,0,Wunderground v.1.15,2017-10-22 07:40:00,
2017-10-22 02:50:00,61.1,59.1,29.89,ENE,61,4.0,18.0,93,0.00,,,0.40,0,Wunderground v.1.15,2017-10-22 07:50:00,
2017-10-22 03:00:00,61.2,59.2,29.87,East,84,6.0,18.0,93,0.00,,,0.40,0,Wunderground v.1.15,2017-10-22 08:00:00,
2017-10-22 03:05:00,61.2,59.5,29.87,ESE,105,7.0,18.0,94,0.00,,,0.40,0,Wunderground v.1.15,2017-10-22 08:05:00,
2017-10-22 03:10:00,61.3,59.6,29.94,WSW,251,6.0,6.0,94,0.00,,,0.40,0,Wunderground v.1.15,2017-10-22 08:10:00,
2017-10-22 03:20:00,61.5,59.8,29.92,NNW,332,7.0,18.0,94,0.00,,,0.40,0,Wunderground v.1.15,2017-10-22 08:20:00,
2017-10-22 03:25:00,61.5,59.8,29.89,WNW,283,4.0,18.0,94,0.00,,,0.40,0,Wunderground v.1.15,2017-10-22 08:25:00,
2017-10-22 03:40:00,61.6,59.9,29.91,SW,231,0.0,18.0,94,0.00,,,0.40,0,Wunderground v.1.15,2017-10-22 08:40:00,
2017-10-22 03:45:00,61.7,60.0,29.94,NW,308,2.0,18.0,94,0.00,,,0.40,0,Wunderground v.1.15,2017-10-22 08:45:00,
2017-10-22 03:55:00,61.4,59.7,29.91,NNW,338,5.0,18.0,94,0.00,,,0.40,0,Wunderground v.1.15,2017-10-22 08:55:00,
2017-10-22 04:00:00,60.8,58.8,29.92,NW,325,8.0,8.0,93,0.00,,,0.40,0,Wunderground v.1.15,2017-10-22 09:00:00,
2017-10-22 04:10:00,60.4,58.4,29.95,NW,315,3.0,3.0,93,0.00,,,0.40,0,Wunderground v.1.15,2017-10-22 09:10:00,
2017-10-22 04:20:00,60.0,58.3,29.97,NW,322,2.0,2.0,94,0.00,,,0.40,0,Wunderground v.1.15,2017-10-22 09:20:00,
2017-10-22 04:25:00,59.8,57.8,29.96,NW,322,1.0,5.0,93,0.00,,,0.40,0,Wunderground v.1.15,2017-10-22 09:25:00,
2017-10-22 04:30:00,59.7,57.7,29.94,NW,325,2.0,4.0,93,0.00,,,0.40,0,Wunderground v.1.15,2017-10-22 09:30:00,
2017-10-22 04:45:00,59.4,57.4,29.97,NNW,336,2.0,3.0,93,0.00,,,0.40,0,Wunderground v.1.15,2017-10-22 09:45:00,
2017-10-22 04:55:00,59.4,57.4,29.99,NNW,342,4.0,6.0,93,0.00,,,0.40,0,Wunderground v.1.15,2017-10-22 09:55:00,
2017-10-22 05:00:00,59.3,57.3,29.98,NNW,348,2.0,2.0,93,0.00,,,0.40,0,Wunderground v.1.15,2017-10-22 10:00:00,
2017-10-22 05:05:00,59.4,57.4,29.98,NNW,332,2.0,19.0,93,0.00,,,0.40,0,Wunderground v.1.15,2017-10-22 10:05:00,
2017-10-22 05:15:00,59.3,57.3,29.99,NNW,334,1.0,19.0,93,0.00,,,0.40,0,Wunderground v.1.15,2017-10-22 10:15:00,
2017-10-22 05:20:00,59.3,57.3,30.00,NNW,340,0.0,19.0,93,0.00,,,0.40,0,Wunderground v.1.15,2017-10-22 10:20:00,
2017-10-22 05:25:00,59.3,57.3,29.99,NNW,330,0.0,19.0,93,0.00,,,0.40,0,Wunderground v.1.15,2017-10-22 10:25:00,
2017-10-22 05:30:00,59.4,57.4,29.99,NW,323,1.0,1.0,93,0.00,,,0.40,0,Wunderground v.1.15,2017-10-22 10:30:00,
2017-10-22 05:35:00,59.4,57.4,29.99,NW,325,2.0,2.0,93,0.00,,,0.40,0,Wunderground v.1.15,2017-10-22 10:35:00,
2017-10-22 05:40:00,59.4,57.4,29.99,NNW,348,2.0,2.0,93,0.00,,,0.40,0,Wunderground v.1.15,2017-10-22 10:40:00,
2017-10-22 05:50:00,59.5,57.5,30.01,NNW,342,1.0,1.0,93,0.00,,,0.40,0,Wunderground v.1.15,2017-10-22 10:50:00,
2017-10-22 05:55:00,59.5,57.5,30.01,North,350,1.0,19.0,93,0.00,,,0.40,0,Wunderground v.1.15,2017-10-22 10:55:00,
2017-10-22 06:05:00,59.5,57.5,30.01,NW,319,1.0,12.0,93,0.00,,,0.40,0,Wunderground v.1.15,2017-10-22 11:05:00,
2017-10-22 06:15:00,59.6,57.6,30.02,NW,314,3.0,19.0,93,0.00,,,0.40,0,Wunderground v.1.15,2017-10-22 11:15:00,
2017-10-22 06:20:00,59.6,57.6,30.02,NNW,332,2.0,2.0,93,0.00,,,0.40,0,Wunderground v.1.15,2017-10-22 11:20:00,
2017-10-22 06:25:00,59.7,57.7,30.03,NW,325,2.0,19.0,93,0.00,,,0.40,0,Wunderground v.1.15,2017-10-22 11:25:00,
2017-10-22 06:35:00,59.8,57.8,30.04,NW,310,0.0,19.0,93,0.00,,,0.40,0,Wunderground v.1.15,2017-10-22 11:35:00,
2017-10-22 06:45:00,59.9,57.9,30.05,NNW,338,1.0,4.0,93,0.00,,,0.40,0,Wunderground v.1.15,2017-10-22 11:45:00,
2017-10-22 06:55:00,60.0,58.0,30.05,NNW,333,0.0,19.0,93,0.00,,,0.40,0,Wunderground v.1.15,2017-10-22 11:55:00,
2017-10-22 07:05:00,60.1,58.1,30.06,NW,310,1.0,19.0,93,0.00,,,0.40,0,Wunderground v.1.15,2017-10-22 12:05:00,
2017-10-22 07:10:00,60.1,58.1,30.05,NW,325,0.0,19.0,93,0.00,,,0.40,0,Wunderground v.1.15,2017-10-22 12:10:00,
2017-10-22 07:15:00,60.2,58.2,30.05,NNW,345,0.0,19.0,93,0.00,,,0.40,0,Wunderground v.1.15,2017-10-22 12:15:00,
2017-10-22 07:25:00,60.2,58.5,30.05,NW,319,0.0,19.0,94,0.00,,,0.40,0,Wunderground v.1.15,2017-10-22 12:25:00,
2017-10-22 07:30:00,60.2,58.5,30.05,NW,313,0.0,19.0,94,0.00,,,0.40,0,Wunderground v.1.15,2017-10-22 12:30:00,
2017-10-22 07:35:00,60.2,58.5,30.06,NW,322,0.0,19.0,94,0.00,,,0.40,0,Wunderground v.1.15,2017-10-22 12:35:00,
2017-10-22 07:40:00,60.2,58.5,30.07,NW,311,0.0,19.0,94,0.00,,,0.40,0,Wunderground v.1.15,2017-10-22 12:40:00,
2017-10-22 07:50:00,60.2,58.5,30.08,NW,305,0.0,19.0,94,0.00,,,0.40,0,Wunderground v.1.15,2017-10-22 12:50:00,
2017-10-22 07:55:00,60.2,58.5,30.09,NW,311,1.0,19.0,94,0.00,,,0.40,7,Wunderground v.1.15,2017-10-22 12:55:00,
2017-10-22 08:00:00,60.2,58.5,30.09,NW,308,0.0,19.0,94,0.00,,,0.40,9,Wunderground v.1.15,2017-10-22 13:00:00,
2017-10-22 08:10:00,60.1,58.4,30.08,NW,319,1.0,1.0,94,0.00,,,0.40,16,Wunderground v.1.15,2017-10-22 13:10:00,
2017-10-22 08:15:00,60.0,58.3,30.08,NW,319,2.0,4.0,94,0.00,,,0.40,21,Wunderground v.1.15,2017-10-22 13:15:00,
2017-10-22 08:20:00,59.9,58.2,30.08,NW,317,3.0,19.0,94,0.00,,,0.40,30,Wunderground v.1.15,2017-10-22 13:20:00,
2017-10-22 08:25:00,59.9,58.2,30.08,NNW,331,1.0,19.0,94,0.00,,,0.40,30,Wunderground v.1.15,2017-10-22 13:25:00,
2017-10-22 08:35:00,59.9,58.2,30.09,NW,320,1.0,19.0,94,0.00,,,0.40,46,Wunderground v.1.15,2017-10-22 13:35:00,
2017-10-22 08:40:00,59.8,58.1,30.10,NW,317,2.0,2.0,94,0.00,,,0.40,51,Wunderground v.1.15,2017-10-22 13:40:00,
2017-10-22 08:50:00,59.6,57.9,30.11,NW,323,2.0,2.0,94,0.00,,,0.40,84,Wunderground v.1.15,2017-10-22 13:50:00,
2017-10-22 08:55:00,59.6,57.9,30.11,NW,311,3.0,7.0,94,0.00,,,0.40,209,Wunderground v.1.15,2017-10-22 13:55:00,
2017-10-22 09:00:00,60.1,58.4,30.11,NW,311,5.0,5.0,94,0.00,,,0.40,118,Wunderground v.1.15,2017-10-22 14:00:00,
2017-10-22 09:10:00,60.5,58.8,30.12,NW,325,3.0,19.0,94,0.00,,,0.40,118,Wunderground v.1.15,2017-10-22 14:10:00,
2017-10-22 09:15:00,60.4,58.4,30.12,NW,304,4.0,19.0,93,0.00,,,0.40,121,Wunderground v.1.15,2017-10-22 14:15:00,
2017-10-22 09:20:00,60.2,58.2,30.13,North,353,6.0,19.0,93,0.00,,,0.40,200,Wunderground v.1.15,2017-10-22 14:20:00,
2017-10-22 09:35:00,60.5,58.2,30.14,NNW,328,6.0,19.0,92,0.00,,,0.40,125,Wunderground v.1.15,2017-10-22 14:35:00,
2017-10-22 09:45:00,60.2,57.9,30.14,NNW,331,7.0,19.0,92,0.00,,,0.40,123,Wunderground v.1.15,2017-10-22 14:45:00,
2017-10-22 09:50:00,60.1,57.5,30.14,NNW,342,6.0,6.0,91,0.00,,,0.40,114,Wunderground v.1.15,2017-10-22 14:50:00,
2017-10-22 10:00:00,59.7,56.8,30.15,NW,325,4.0,19.0,90,0.00,,,0.41,120,Wunderground v.1.15,2017-10-22 15:00:00,
2017-10-22 10:05:00,59.5,56.6,30.15,NNW,336,5.0,19.0,90,0.00,,,0.41,207,Wunderground v.1.15,2017-10-22 15:05:00,
2017-10-22 10:15:00,59.9,57.0,30.15,NNW,331,2.0,19.0,90,0.00,,,0.41,185,Wunderground v.1.15,2017-10-22 15:15:00,
2017-10-22 10:20:00,60.2,56.9,30.15,NNW,337,2.0,19.0,89,0.00,,,0.41,144,Wunderground v.1.15,2017-10-22 15:20:00,
2017-10-22 10:30:00,60.7,57.1,30.15,NNW,346,3.0,3.0,88,0.00,,,0.41,202,Wunderground v.1.15,2017-10-22 15:30:00,
2017-10-22 10:35:00,61.2,57.6,30.15,WNW,298,0.0,19.0,88,0.00,,,0.41,204,Wunderground v.1.15,2017-10-22 15:35:00,
2017-10-22 10:45:00,62.5,57.9,30.16,NW,315,5.0,10.0,85,0.00,,,0.41,504,Wunderground v.1.15,2017-10-22 15:45:00,
2017-10-22 10:55:00,63.9,57.3,30.15,NNW,344,7.0,7.0,79,0.00,,,0.41,512,Wunderground v.1.15,2017-10-22 15:55:00,
2017-10-22 11:05:00,66.3,58.1,30.15,North,350,3.0,19.0,75,0.00,,,0.41,531,Wunderground v.1.15,2017-10-22 16:05:00,
2017-10-22 11:15:00,68.0,57.0,30.15,WNW,297,4.0,4.0,68,0.00,,,0.41,548,Wunderground v.1.15,2017-10-22 16:15:00,
2017-10-22 11:25:00,68.7,56.5,30.15,NNW,336,4.0,6.0,65,0.00,,,0.41,568,Wunderground v.1.15,2017-10-22 16:25:00,
2017-10-22 11:35:00,69.4,55.8,30.15,NW,307,6.0,19.0,62,0.00,,,0.41,585,Wunderground v.1.15,2017-10-22 16:35:00,
2017-10-22 11:45:00,70.2,55.2,30.15,NNW,344,8.0,19.0,59,0.00,,,0.41,603,Wunderground v.1.15,2017-10-22 16:45:00,
2017-10-22 11:55:00,71.6,56.5,30.16,NNW,329,3.0,19.0,59,0.00,,,0.41,615,Wunderground v.1.15,2017-10-22 16:55:00,
2017-10-22 12:00:00,71.9,53.8,30.16,NW,321,6.0,19.0,53,0.00,,,0.41,626,Wunderground v.1.15,2017-10-22 17:00:00,
2017-10-22 12:05:00,71.6,53.0,30.16,North,7,10.0,19.0,52,0.00,,,0.41,629,Wunderground v.1.15,2017-10-22 17:05:00,
2017-10-22 12:10:00,72.0,53.9,30.16,NW,309,9.0,19.0,53,0.00,,,0.41,635,Wunderground v.1.15,2017-10-22 17:10:00,
2017-10-22 12:20:00,72.8,52.5,30.16,NNW,328,7.0,19.0,49,0.00,,,0.41,649,Wunderground v.1.15,2017-10-22 17:20:00,
2017-10-22 12:30:00,73.4,50.8,30.16,North,350,9.0,9.0,45,0.00,,,0.41,659,Wunderground v.1.15,2017-10-22 17:30:00,
2017-10-22 12:35:00,73.7,51.6,30.16,NNW,346,9.0,19.0,46,0.00,,,0.41,661,Wunderground v.1.15,2017-10-22 17:35:00,
2017-10-22 12:45:00,73.9,50.6,30.16,North,3,10.0,19.0,44,0.00,,,0.41,668,Wunderground v.1.15,2017-10-22 17:45:00,
2017-10-22 12:50:00,74.2,50.9,30.15,North,355,10.0,10.0,44,0.00,,,0.41,670,Wunderground v.1.15,2017-10-22 17:50:00,
2017-10-22 13:00:00,75.1,49.8,30.15,North,358,9.0,19.0,41,0.00,,,0.41,677,Wunderground v.1.15,2017-10-22 18:00:00,
2017-10-22 13:10:00,75.2,48.5,30.15,NNW,335,13.0,19.0,39,0.00,,,0.41,682,Wunderground v.1.15,2017-10-22 18:10:00,
2017-10-22 13:15:00,75.5,48.1,30.15,NNW,328,11.0,19.0,38,0.00,,,0.41,684,Wunderground v.1.15,2017-10-22 18:15:00,
2017-10-22 13:20:00,75.8,46.9,30.15,North,4,11.0,19.0,36,0.00,,,0.41,680,Wunderground v.1.15,2017-10-22 18:20:00,
2017-10-22 13:30:00,77.0,48.7,30.14,NNW,339,10.0,10.0,37,0.00,,,0.41,679,Wunderground v.1.15,2017-10-22 18:30:00,
2017-10-22 13:35:00,77.1,47.3,30.14,NNE,22,9.0,19.0,35,0.00,,,0.41,680,Wunderground v.1.15,2017-10-22 18:35:00,
2017-10-22 13:40:00,76.7,47.7,30.14,NNW,334,8.0,8.0,36,0.00,,,0.41,675,Wunderground v.1.15,2017-10-22 18:40:00,
2017-10-22 13:50:00,76.7,47.0,30.13,NNE,20,10.0,10.0,35,0.00,,,0.41,675,Wunderground v.1.15,2017-10-22 18:50:00,
2017-10-22 14:00:00,78.2,45.9,30.13,North,10,9.0,19.0,32,0.00,,,0.41,671,Wunderground v.1.15,2017-10-22 19:00:00,
2017-10-22 14:10:00,78.4,46.9,30.13,NNW,331,7.0,19.0,33,0.00,,,0.41,664,Wunderground v.1.15,2017-10-22 19:10:00,
2017-10-22 14:15:00,78.6,45.4,30.13,NNW,342,7.0,19.0,31,0.00,,,0.41,659,Wunderground v.1.15,2017-10-22 19:15:00,
2017-10-22 14:20:00,78.0,44.0,30.12,NNW,346,9.0,9.0,30,0.00,,,0.41,654,Wunderground v.1.15,2017-10-22 19:20:00,
2017-10-22 14:25:00,78.6,44.6,30.12,NNE,15,10.0,12.0,30,0.00,,,0.41,649,Wunderground v.1.15,2017-10-22 19:25:00,
2017-10-22 14:30:00,77.8,43.0,30.12,NNW,332,10.0,10.0,29,0.00,,,0.41,645,Wunderground v.1.15,2017-10-22 19:30:00,
2017-10-22 14:35:00,77.3,43.4,30.12,NNW,339,10.0,19.0,30,0.00,,,0.41,635,Wunderground v.1.15,2017-10-22 19:35:00,
2017-10-22 14:40:00,77.8,43.9,30.12,North,356,8.0,19.0,30,0.00,,,0.41,631,Wunderground v.1.15,2017-10-22 19:40:00,
2017-10-22 14:45:00,77.5,42.7,30.12,NW,316,9.0,19.0,29,0.00,,,0.41,626,Wunderground v.1.15,2017-10-22 19:45:00,
2017-10-22 14:55:00,78.5,42.7,30.12,North,352,8.0,19.0,28,0.00,,,0.41,605,Wunderground v.1.15,2017-10-22 19:55:00,
2017-10-22 15:00:00,78.0,42.2,30.12,NW,321,9.0,19.0,28,0.00,,,0.41,598,Wunderground v.1.15,2017-10-22 20:00:00,
2017-10-22 15:05:00,78.3,43.4,30.12,North,359,7.0,19.0,29,0.00,,,0.41,591,Wunderground v.1.15,2017-10-22 20:05:00,
2017-10-22 15:15:00,78.4,40.7,30.12,NNW,342,8.0,19.0,26,0.00,,,0.41,577,Wunderground v.1.15,2017-10-22 20:15:00,
2017-10-22 15:25:00,78.7,40.9,30.12,North,349,7.0,19.0,26,0.00,,,0.41,555,Wunderground v.1.15,2017-10-22 20:25:00,